Location: Cella
(44.7333°N, 10.5667°E)
Time: 02:17:45
(UTC+00:00)

SJ-6B - Pass Details

Date: 03 March 2021
Orbit: 509 x 581 km, 97.6° (Epoch: 20 April)

Event Time Altitude Azimuth Distance (km) Brightness Sun altitude
Exits shadow 19:21:37 52° 209° (SSW) 723 3.4 -24.3°
Maximum altitude 19:22:22 63° 259° (W) 644 3.2 -24.4°
Drops below altitude 10° 19:26:25 10° 341° (NNW) 1,878 5.9 -25.1°
Sets 19:28:34 0° 345° (NNW) 2,770 6.8 -25.5°
